Beaufort MCAS, SC

12:04 PM EDT on May 24, 2017 (GMT -0400)
Beaufort Marine Corps Air Station

Weather History for KNBC - April, 2014

Change the Weather History Date:

Monday, April 7, 2014

  Actual Average Record
Temperature  
Mean Temperature 66 °F -  
Max Temperature 75 °F 73 °F 93 °F (1967)
Min Temperature 59 °F 50 °F 34 °F (1982)
Cooling Degree Days 1    
Growing Degree Days 16 (Base 50)    
Moisture  
Dew Point 62 °F    
Average Humidity 89    
Maximum Humidity 97    
Minimum Humidity 73    
Precipitation  
Precipitation 1.08 in - - ()
Sea Level Pressure  
Sea Level Pressure 29.87 in    
Wind  
Wind Speed 8 mph (SSE)    
Max Wind Speed 21 mph    
Max Gust Speed 32 mph    
Visibility 6 miles    
Events Fog , Rain , Thunderstorm    
Averages and records for this station are not official NWS values.
T = Trace of Precipitation, MM = Missing Value Source: NWS Daily Summary

Daily Weather History Graph

Daily Weather History Graph

Search for Another Location

Airport or City:

Trip Planner

Search our weather history database for the weather conditions in past years. The results will help you decide how hot, cold, wet, or windy it might be!

Date:

Astronomy

Apr. 07, 2014 Rise Set
Actual Time 7:03 AM EDT 7:47 PM EDT
Civil Twilight 6:38 AM EDT 8:11 PM EDT
Nautical Twilight 6:09 AM EDT 8:41 PM EDT
Astronomical Twilight 5:39 AM EDT 9:11 PM EDT
Moon 1:06 PM EDT (4/7) 2:14 AM EDT (4/7)
Length of Visible Light 13h 33m
Length of Day
12h 43m
First Quarter, 53% of the Moon is Illuminated
Apr 7
First Quarter
Apr 15
Full
Apr 22
Last Quarter
Apr 29
New
May 6
First Quarter

Hourly Weather History & Observations

Time (EDT) Temp. Dew Point Humidity Pressure Visibility Wind Dir Wind Speed Gust Speed Precip Events Conditions
12:56 AM 59.0 °F 55.0 °F 87% 30.01 in 9.0 mi East 5.8 mph - N/A   Overcast
1:53 AM 60.8 °F 55.4 °F 82% 29.99 in 10.0 mi ESE 6.9 mph - N/A   Overcast
1:56 AM 61.0 °F 55.9 °F 83% 29.99 in 10.0 mi ESE 8.1 mph - N/A   Overcast
2:56 AM 60.1 °F 55.9 °F 86% 29.95 in 8.0 mi East 8.1 mph - N/A   Overcast
3:56 AM 61.0 °F 57.0 °F 87% 29.93 in 8.0 mi ESE 5.8 mph - N/A   Overcast
4:56 AM 61.0 °F 57.9 °F 90% 29.92 in 7.0 mi ESE 6.9 mph - N/A   Overcast
5:56 AM 61.0 °F 59.0 °F 93% 29.92 in 6.0 mi Variable 3.5 mph - N/A   Overcast
6:56 AM 62.1 °F 60.1 °F 93% 29.92 in 2.5 mi ESE 5.8 mph - N/A   Mostly Cloudy
7:56 AM 63.0 °F 61.0 °F 93% 29.92 in 2.5 mi SE 5.8 mph - N/A   Overcast
8:43 AM 66.9 °F 63.0 °F 87% 29.91 in 3.0 mi South 5.8 mph - N/A   Overcast
8:56 AM 66.9 °F 64.0 °F 90% 29.91 in 4.0 mi South 5.8 mph - N/A   Overcast
9:56 AM 73.0 °F 66.9 °F 81% 29.88 in 10.0 mi South 12.7 mph 20.7 mph N/A   Overcast
10:56 AM 73.0 °F 66.9 °F 81% 29.89 in 10.0 mi South 13.8 mph 20.7 mph N/A   Overcast
11:56 AM 73.0 °F 66.0 °F 79% 29.90 in 10.0 mi SSW 8.1 mph 24.2 mph N/A   Overcast
12:56 PM 73.0 °F 66.0 °F 79% 29.88 in 10.0 mi South 10.4 mph 20.7 mph N/A   Overcast
1:56 PM 73.9 °F 64.9 °F 73% 29.87 in 10.0 mi SSW 12.7 mph 21.9 mph N/A   Overcast
2:56 PM 73.9 °F 64.9 °F 73% 29.85 in 10.0 mi SSW 12.7 mph 20.7 mph N/A   Overcast
3:56 PM 72.0 °F 64.9 °F 78% 29.83 in 10.0 mi SSW 5.8 mph - N/A   Overcast
4:10 PM 70.0 °F 66.9 °F 90% 29.82 in 5.0 mi South 4.6 mph - 0.01 in   Overcast
4:42 PM 70.0 °F 66.9 °F 90% 29.81 in 6.0 mi South 3.5 mph - 0.05 in Rain , Thunderstorm Thunderstorms and Rain
4:56 PM 69.1 °F 66.9 °F 93% 29.82 in 2.0 mi South 6.9 mph - 0.08 in Rain , Thunderstorm Thunderstorms and Rain
5:00 PM 69.1 °F 66.9 °F 93% 29.82 in 1.8 mi SSW 6.9 mph - 0.03 in Rain , Thunderstorm Thunderstorms and Rain
5:04 PM 69.1 °F 66.9 °F 93% 29.81 in 1.0 mi SSW 8.1 mph - 0.08 in Rain , Thunderstorm Thunderstorms and Rain
5:06 PM 69.1 °F 66.9 °F 93% 29.81 in 0.5 mi South 5.8 mph - 0.15 in Fog , Rain , Thunderstorm Thunderstorms and Rain
5:20 PM 64.0 °F 62.1 °F 93% 29.85 in 1.0 mi North 20.7 mph 32.2 mph 0.29 in Rain , Thunderstorm Thunderstorms and Rain
5:29 PM 63.0 °F 61.0 °F 93% 29.86 in 1.5 mi North 17.3 mph 28.8 mph 0.37 in Rain , Thunderstorm Thunderstorms and Rain
5:43 PM 63.0 °F 61.0 °F 93% 29.87 in 2.0 mi North 13.8 mph - 0.47 in Rain , Thunderstorm Thunderstorms and Rain
5:53 PM 62.6 °F 60.8 °F 94% 29.84 in 3.0 mi North 9.2 mph - 0.50 in Rain , Thunderstorm Thunderstorms and Rain
5:56 PM 63.0 °F 61.0 °F 93% 29.86 in 1.5 mi NNE 15.0 mph - 0.58 in Rain , Thunderstorm Thunderstorms and Rain
6:03 PM 63.0 °F 61.0 °F 93% 29.84 in 1.2 mi North 12.7 mph - 0.02 in Rain , Thunderstorm Thunderstorms and Rain
6:07 PM 63.0 °F 61.0 °F 93% 29.83 in 3.0 mi NNE 15.0 mph - 0.02 in Rain , Thunderstorm Thunderstorms and Rain
6:16 PM 63.0 °F 61.0 °F 93% 29.83 in 7.0 mi North 9.2 mph - 0.03 in Rain Light Rain
6:56 PM 63.0 °F 61.0 °F 93% 29.86 in 4.0 mi East 4.6 mph - 0.08 in Rain Rain
7:12 PM 63.0 °F 61.0 °F 93% 29.84 in 2.5 mi ESE 4.6 mph - 0.06 in Rain Heavy Rain
7:24 PM 64.0 °F 62.1 °F 93% 29.85 in 4.0 mi SE 5.8 mph - 0.09 in Rain Rain
7:56 PM 63.0 °F 62.1 °F 97% 29.84 in 4.0 mi ESE 4.6 mph - 0.19 in Rain Rain
8:14 PM 64.0 °F 62.1 °F 93% 29.85 in 1.8 mi SSE 4.6 mph - 0.10 in Rain Heavy Rain
8:21 PM 64.0 °F 62.1 °F 93% 29.84 in 1.5 mi SSE 6.9 mph - 0.11 in Rain Rain
8:24 PM 64.0 °F 62.1 °F 93% 29.84 in 3.0 mi SSE 6.9 mph - 0.12 in Rain Rain
8:56 PM 64.0 °F 62.1 °F 93% 29.81 in 10.0 mi SSE 5.8 mph - 0.15 in Rain Light Rain
9:56 PM 64.0 °F 62.1 °F 93% 29.78 in 9.0 mi South 5.8 mph - 0.00 in   Scattered Clouds
10:56 PM 64.0 °F 63.0 °F 96% 29.79 in 10.0 mi South 5.8 mph - N/A   Mostly Cloudy
11:56 PM 64.9 °F 63.0 °F 93% 29.79 in 10.0 mi South 8.1 mph - N/A   Partly Cloudy